QPF
0.00 0.00 0.00 0.00 0.00 0.00 0.01 0.00 0.00 0.01 0.01 0.00 0.01 0.01 0.01 0.01 0.01 0.01 0.00 0.00 0.00 0.00 0.00 0.00 0.01 0.01 0.01 0.01 0.03 0.03 0.02 0.02 0.03 0.05 0.05 0.05 0.06 0.06 0.05 0.04 0.05 0.06 0.06 0.06
0.00 0.00 0.00 0.01 0.01 0.01 0.01 0.00 0.00 0.01 0.01 0.01 0.01 0.01 0.01 0.01 0.02 0.03 0.01 0.00 0.00 0.00 0.00 0.01 0.01 0.01 0.01 0.01 0.02 0.02 0.02 0.01 0.01 0.03 0.05 0.07 0.11 0.11 0.07 0.04 0.04 0.04 0.05 0.05
0.00 0.00 0.00 0.01 0.01 0.01 0.01 0.00 0.00 0.00 0.01 0.02 0.02 0.01 0.00 0.01 0.02 0.02 0.01 0.00 0.00 0.00 0.01 0.01 0.01 0.01 0.01 0.02 0.02 0.02 0.02 0.01 0.02 0.02 0.02 0.03 0.05 0.06 0.06 0.05 0.04 0.04 0.04 0.03
0.01 0.00 0.00 0.01 0.01 0.01 0.01 0.01 0.01 0.01 0.01 0.01 0.02 0.01 0.01 0.01 0.01 0.02 0.02 0.01 0.00 0.01 0.02 0.02 0.02 0.02 0.02 0.02 0.01 0.02 0.02 0.02 0.02 0.02 0.02 0.02 0.03 0.03 0.03 0.04 0.04 0.04 0.04 0.04
0.00 0.01 0.01 0.01 0.01 0.01 0.01 0.01 0.02 0.02 0.02 0.01 0.01 0.01 0.01 0.01 0.01 0.01 0.01 0.01 0.01 0.01 0.01 0.01 0.01 0.01 0.01 0.01 0.01 0.01 0.01 0.01 0.01 0.01 0.02 0.02 0.02 0.02 0.03 0.03 0.03 0.03 0.04 0.04
0.00 0.01 0.02 0.02 0.01 0.02 0.02 0.02 0.01 0.01 0.02 0.01 0.01 0.02 0.03 0.02 0.01 0.01 0.01 0.01 0.01 0.01 0.01 0.02 0.02 0.02 0.01 0.01 0.01 0.01 0.01 0.01 0.01 0.01 0.01 0.02 0.03 0.02 0.02 0.02 0.02 0.02 0.03 0.02
0.01 0.01 0.02 0.01 0.00 0.01 0.03 0.03 0.01 0.00 0.01 0.02 0.02 0.02 0.03 0.03 0.01 0.01 0.01 0.01 0.01 0.01 0.02 0.02 0.02 0.02 0.01 0.01 0.01 0.01 0.01 0.01 0.01 0.01 0.01 0.02 0.02 0.02 0.02 0.02 0.02 0.02 0.02 0.03
0.01 0.02 0.02 0.01 0.01 0.01 0.02 0.01 0.01 0.01 0.01 0.02 0.02 0.04 0.05 0.06 0.02 0.01 0.01 0.02 0.02 0.02 0.02 0.02 0.02 0.02 0.02 0.02 0.02 0.01 0.02 0.02 0.02 0.02 0.02 0.02 0.03 0.03 0.02 0.02 0.02 0.02 0.03 0.03
0.03 0.03 0.02 0.01 0.01 0.01 0.00 0.01 0.02 0.02 0.02 0.02 0.02 0.07 0.08 0.07 0.03 0.02 0.01 0.02 0.03 0.04 0.04 0.03 0.03 0.02 0.02 0.03 0.03 0.03 0.02 0.02 0.03 0.03 0.03 0.02 0.02 0.02 0.02 0.03 0.03 0.03 0.03 0.03
0.02 0.02 0.01 0.01 0.01 0.01 0.01 0.01 0.03 0.03 0.03 0.02 0.02 0.05 0.07 0.04 0.03 0.03 0.03 0.03 0.04 0.06 0.06 0.05 0.04 0.03 0.02 0.02 0.03 0.04 0.03 0.02 0.03 0.03 0.03 0.02 0.02 0.02 0.02 0.03 0.03 0.03 0.03 0.03
0.01 0.02 0.01 0.02 0.01 0.01 0.01 0.02 0.03 0.02 0.01 0.01 0.02 0.02 0.02 0.03 0.03 0.04 0.04 0.03 0.05 0.06 0.06 0.06 0.05 0.04 0.03 0.03 0.03 0.04 0.04 0.03 0.03 0.03 0.03 0.03 0.02 0.02 0.02 0.02 0.02 0.02 0.03 0.03
0.02 0.01 0.01 0.01 0.01 0.01 0.00 0.02 0.03 0.02 0.02 0.02 0.01 0.01 0.02 0.03 0.02 0.03 0.03 0.03 0.03 0.04 0.04 0.05 0.04 0.04 0.03 0.03 0.03 0.03 0.03 0.03 0.03 0.03 0.03 0.03 0.03 0.02 0.02 0.02 0.02 0.02 0.02 0.02
0.01 0.01 0.01 0.01 0.01 0.00 0.00 0.01 0.02 0.05 0.05 0.02 0.01 0.01 0.02 0.01 0.01 0.01 0.01 0.02 0.03 0.03 0.03 0.03 0.03 0.03 0.03 0.03 0.03 0.03 0.03 0.03 0.03 0.02 0.02 0.02 0.02 0.03 0.03 0.03 0.02 0.02 0.02 0.01
0.00 0.00 0.01 0.01 0.01 0.01 0.00 0.01 0.02 0.03 0.03 0.02 0.02 0.01 0.01 0.01 0.01 0.01 0.01 0.01 0.01 0.02 0.02 0.03 0.02 0.02 0.02 0.02 0.03 0.03 0.03 0.03 0.03 0.02 0.02 0.02 0.02 0.02 0.02 0.02 0.01 0.02 0.02 0.01
0.00 0.00 0.01 0.01 0.01 0.01 0.01 0.01 0.02 0.02 0.03 0.03 0.02 0.01 0.01 0.01 0.01 0.01 0.01 0.01 0.02 0.02 0.02 0.03 0.03 0.03 0.02 0.02 0.03 0.03 0.03 0.02 0.02 0.02 0.01 0.01 0.02 0.02 0.01 0.01 0.02 0.02 0.02 0.02
0.00 0.00 0.00 0.00 0.00 0.01 0.01 0.01 0.01 0.02 0.03 0.03 0.01 0.01 0.01 0.01 0.01 0.01 0.01 0.01 0.01 0.02 0.02 0.02 0.02 0.02 0.01 0.02 0.03 0.02 0.02 0.02 0.02 0.02 0.03 0.02 0.02 0.02 0.01 0.01 0.02 0.02 0.02 0.02
0.00 0.01 0.00 0.00 0.01 0.01 0.02 0.02 0.01 0.01 0.02 0.02 0.03 0.02 0.01 0.01 0.01 0.01 0.00 0.00 0.00 0.01 0.01 0.01 0.01 0.01 0.01 0.01 0.02 0.02 0.02 0.03 0.03 0.02 0.02 0.03 0.02 0.02 0.02 0.02 0.02 0.02 0.02 0.02
0.00 0.00 0.00 0.01 0.01 0.01 0.02 0.01 0.01 0.01 0.02 0.02 0.03 0.03 0.02 0.01 0.01 0.00 0.00 0.00 0.01 0.01 0.01 0.01 0.01 0.01 0.01 0.00 0.01 0.01 0.02 0.02 0.02 0.01 0.02 0.03 0.03 0.03 0.03 0.02 0.02 0.02 0.02 0.02
0.01 0.01 0.01 0.01 0.01 0.01 0.01 0.01 0.01 0.01 0.02 0.01 0.02 0.02 0.02 0.01 0.01 0.00 0.00 0.01 0.02 0.02 0.01 0.01 0.01 0.01 0.01 0.00 0.01 0.01 0.02 0.02 0.01 0.01 0.02 0.03 0.03 0.02 0.01 0.01 0.01 0.02 0.02 0.03
0.01 0.01 0.01 0.01 0.01 0.01 0.01 0.01 0.02 0.02 0.02 0.02 0.02 0.01 0.01 0.01 0.01 0.01 0.01 0.01 0.01 0.01 0.01 0.01 0.01 0.01 0.00 0.00 0.01 0.01 0.01 0.01 0.01 0.02 0.02 0.02 0.02 0.02 0.02 0.02 0.02 0.02 0.02 0.03
0.03 0.02 0.01 0.01 0.01 0.01 0.01 0.02 0.02 0.03 0.03 0.02 0.02 0.01 0.02 0.01 0.01 0.00 0.00 0.01 0.01 0.01 0.00 0.00 0.01 0.00 0.01 0.01 0.01 0.01 0.01 0.01 0.01 0.02 0.02 0.02 0.02 0.02 0.02 0.02 0.02 0.03 0.03 0.02
0.02 0.02 0.01 0.01 0.01 0.01 0.01 0.02 0.02 0.03 0.03 0.02 0.01 0.02 0.02 0.01 0.01 0.00 0.00 0.00 0.01 0.01 0.00 0.00 0.00 0.01 0.01 0.01 0.01 0.01 0.01 0.01 0.01 0.01 0.02 0.03 0.02 0.02 0.02 0.03 0.03 0.03 0.03 0.04
0.01 0.01 0.01 0.01 0.01 0.01 0.01 0.01 0.02 0.02 0.02 0.02 0.02 0.02 0.01 0.01 0.00 0.00 0.00 0.00 0.00 0.01 0.00 0.01 0.01 0.01 0.01 0.01 0.01 0.01 0.02 0.02 0.02 0.03 0.03 0.03 0.03 0.03 0.04 0.03 0.03 0.04 0.04 0.04
0.01 0.01 0.01 0.01 0.01 0.01 0.01 0.00 0.01 0.02 0.02 0.02 0.02 0.02 0.01 0.01 0.01 0.00 0.00 0.01 0.01 0.01 0.01 0.01 0.01 0.00 0.00 0.00 0.01 0.02 0.02 0.03 0.03 0.04 0.03 0.03 0.04 0.04 0.04 0.03 0.03 0.03 0.03 0.04
0.01 0.01 0.01 0.01 0.01 0.00 0.00 0.01 0.01 0.02 0.03 0.04 0.03 0.02 0.02 0.01 0.01 0.01 0.01 0.02 0.02 0.02 0.01 0.01 0.00 0.00 0.01 0.01 0.02 0.03 0.03 0.03 0.03 0.03 0.03 0.04 0.04 0.05 0.04 0.04 0.03 0.03 0.03 0.03
0.01 0.01 0.01 0.01 0.00 0.01 0.01 0.01 0.01 0.03 0.04 0.03 0.03 0.03 0.02 0.01 0.01 0.01 0.01 0.02 0.02 0.01 0.01 0.01 0.01 0.01 0.01 0.01 0.01 0.02 0.02 0.02 0.03 0.03 0.03 0.04 0.04 0.04 0.04 0.04 0.04 0.04 0.03 0.02
0.01 0.01 0.01 0.01 0.01 0.01 0.01 0.01 0.02 0.03 0.03 0.03 0.03 0.03 0.03 0.02 0.01 0.01 0.01 0.01 0.01 0.01 0.01 0.01 0.01 0.01 0.01 0.01 0.01 0.01 0.01 0.01 0.02 0.02 0.03 0.04 0.05 0.05 0.05 0.04 0.05 0.04 0.03 0.02
MSLP
1007.27 1007.22 1007.10 1006.92 1006.67 1006.35 1005.97 1005.54 1005.06 1004.54 1004.01 1003.49 1003.01 1002.61 1002.32 1002.15 1002.11 1002.19 1002.40 1002.71 1003.09 1003.54 1004.03 1004.56 1005.13 1005.72 1006.32 1006.93 1007.52 1008.07 1008.55 1008.94 1009.23 1009.43 1009.54 1009.60 1009.65 1009.71 1009.83 1010.01 1010.26 1010.56 1010.89 1011.21
1007.83 1007.65 1007.34 1006.90 1006.36 1005.75 1005.10 1004.46 1003.86 1003.31 1002.83 1002.44 1002.15 1001.95 1001.83 1001.80 1001.85 1001.96 1002.13 1002.35 1002.64 1002.99 1003.42 1003.91 1004.48 1005.11 1005.78 1006.47 1007.13 1007.74 1008.27 1008.68 1008.98 1009.17 1009.27 1009.33 1009.39 1009.48 1009.64 1009.87 1010.17 1010.52 1010.90 1011.26
1008.24 1007.94 1007.44 1006.78 1005.98 1005.12 1004.25 1003.44 1002.73 1002.15 1001.73 1001.45 1001.30 1001.27 1001.30 1001.38 1001.48 1001.59 1001.71 1001.85 1002.03 1002.28 1002.62 1003.07 1003.62 1004.27 1005.00 1005.75 1006.49 1007.16 1007.74 1008.20 1008.53 1008.74 1008.87 1008.96 1009.04 1009.17 1009.36 1009.63 1009.96 1010.35 1010.75 1011.14
1008.44 1008.02 1007.38 1006.55 1005.57 1004.52 1003.50 1002.56 1001.79 1001.20 1000.82 1000.63 1000.61 1000.69 1000.82 1000.97 1001.09 1001.18 1001.23 1001.27 1001.34 1001.47 1001.72 1002.09 1002.61 1003.25 1004.00 1004.80 1005.59 1006.33 1006.97 1007.49 1007.88 1008.15 1008.33 1008.46 1008.60 1008.77 1009.00 1009.30 1009.66 1010.06 1010.47 1010.86
1008.42 1007.92 1007.18 1006.24 1005.15 1004.01 1002.91 1001.93 1001.14 1000.57 1000.25 1000.13 1000.19 1000.35 1000.54 1000.72 1000.83 1000.86 1000.83 1000.76 1000.70 1000.71 1000.84 1001.12 1001.57 1002.18 1002.91 1003.73 1004.56 1005.35 1006.05 1006.64 1007.10 1007.45 1007.71 1007.92 1008.12 1008.35 1008.63 1008.95 1009.32 1009.71 1010.10 1010.47
1008.22 1007.66 1006.88 1005.90 1004.80 1003.66 1002.57 1001.61 1000.86 1000.35 1000.08 1000.03 1000.15 1000.35 1000.57 1000.74 1000.81 1000.78 1000.65 1000.47 1000.28 1000.16 1000.17 1000.34 1000.69 1001.24 1001.93 1002.73 1003.57 1004.39 1005.14 1005.79 1006.33 1006.77 1007.12 1007.41 1007.69 1007.98 1008.30 1008.64 1009.01 1009.38 1009.73 1010.06
1007.89 1007.32 1006.55 1005.62 1004.58 1003.52 1002.51 1001.65 1000.99 1000.57 1000.37 1000.38 1000.54 1000.76 1000.97 1001.11 1001.13 1001.03 1000.81 1000.52 1000.21 999.97 999.86 999.91 1000.16 1000.61 1001.23 1001.98 1002.79 1003.61 1004.40 1005.10 1005.71 1006.22 1006.66 1007.04 1007.39 1007.74 1008.08 1008.44 1008.79 1009.12 1009.43 1009.70
1007.53 1006.97 1006.26 1005.43 1004.53 1003.61 1002.76 1002.04 1001.51 1001.18 1001.06 1001.12 1001.30 1001.52 1001.71 1001.81 1001.78 1001.61 1001.32 1000.94 1000.55 1000.22 1000.00 999.94 1000.09 1000.44 1000.96 1001.63 1002.39 1003.18 1003.96 1004.68 1005.33 1005.91 1006.41 1006.85 1007.26 1007.64 1008.01 1008.35 1008.67 1008.96 1009.22 1009.43
1007.21 1006.70 1006.09 1005.40 1004.66 1003.93 1003.26 1002.71 1002.31 1002.09 1002.04 1002.13 1002.31 1002.51 1002.66 1002.72 1002.65 1002.44 1002.11 1001.69 1001.26 1000.86 1000.58 1000.45 1000.50 1000.75 1001.18 1001.75 1002.43 1003.16 1003.89 1004.60 1005.25 1005.84 1006.38 1006.85 1007.29 1007.68 1008.04 1008.36 1008.64 1008.88 1009.07 1009.22
1006.98 1006.53 1006.05 1005.51 1004.96 1004.42 1003.93 1003.54 1003.27 1003.13 1003.12 1003.22 1003.37 1003.54 1003.65 1003.68 1003.58 1003.36 1003.03 1002.61 1002.18 1001.79 1001.48 1001.31 1001.31 1001.48 1001.81 1002.29 1002.87 1003.50 1004.16 1004.81 1005.42 1005.99 1006.51 1006.97 1007.39 1007.76 1008.09 1008.37 1008.60 1008.77 1008.90 1009.00
1006.85 1006.50 1006.13 1005.76 1005.38 1005.01 1004.68 1004.41 1004.23 1004.13 1004.13 1004.20 1004.31 1004.41 1004.48 1004.47 1004.37 1004.17 1003.87 1003.52 1003.15 1002.80 1002.53 1002.37 1002.35 1002.47 1002.72 1003.11 1003.58 1004.10 1004.66 1005.21 1005.75 1006.25 1006.70 1007.11 1007.48 1007.80 1008.06 1008.28 1008.45 1008.57 1008.64 1008.68
1006.83 1006.57 1006.32 1006.08 1005.85 1005.61 1005.39 1005.20 1005.05 1004.96 1004.92 1004.92 1004.95 1004.98 1004.99 1004.96 1004.86 1004.70 1004.48 1004.22 1003.95 1003.71 1003.52 1003.41 1003.40 1003.50 1003.71 1004.01 1004.38 1004.79 1005.23 1005.66 1006.09 1006.48 1006.84 1007.16 1007.44 1007.67 1007.86 1008.00 1008.10 1008.16 1008.18 1008.18
1006.87 1006.70 1006.56 1006.43 1006.30 1006.16 1006.00 1005.84 1005.68 1005.54 1005.42 1005.33 1005.26 1005.20 1005.15 1005.09 1005.00 1004.89 1004.76 1004.62 1004.48 1004.36 1004.28 1004.25 1004.29 1004.40 1004.58 1004.81 1005.09 1005.40 1005.71 1006.02 1006.31 1006.59 1006.83 1007.03 1007.21 1007.34 1007.44 1007.50 1007.53 1007.52 1007.50 1007.47
1006.95 1006.86 1006.81 1006.77 1006.71 1006.62 1006.49 1006.32 1006.12 1005.90 1005.68 1005.47 1005.29 1005.14 1005.01 1004.92 1004.84 1004.78 1004.73 1004.70 1004.69 1004.70 1004.73 1004.80 1004.90 1005.03 1005.20 1005.39 1005.59 1005.80 1006.01 1006.20 1006.37 1006.52 1006.63 1006.72 1006.78 1006.81 1006.82 1006.79 1006.75 1006.69 1006.63 1006.57
1007.04 1007.03 1007.05 1007.08 1007.08 1007.01 1006.88 1006.68 1006.42 1006.12 1005.79 1005.47 1005.18 1004.93 1004.73 1004.59 1004.51 1004.48 1004.50 1004.56 1004.65 1004.77 1004.90 1005.05 1005.20 1005.37 1005.53 1005.69 1005.84 1005.97 1006.09 1006.18 1006.25 1006.28 1006.29 1006.27 1006.22 1006.16 1006.07 1005.96 1005.85 1005.74 1005.64 1005.56
1007.16 1007.22 1007.31 1007.40 1007.43 1007.38 1007.24 1007.01 1006.69 1006.31 1005.90 1005.48 1005.08 1004.74 1004.47 1004.29 1004.19 1004.17 1004.22 1004.33 1004.48 1004.66 1004.86 1005.06 1005.25 1005.44 1005.60 1005.73 1005.85 1005.93 1005.98 1006.00 1005.99 1005.94 1005.86 1005.75 1005.62 1005.46 1005.29 1005.11 1004.93 1004.77 1004.63 1004.52
1007.33 1007.46 1007.61 1007.74 1007.80 1007.77 1007.63 1007.37 1007.02 1006.58 1006.10 1005.61 1005.14 1004.73 1004.40 1004.16 1004.02 1003.98 1004.03 1004.14 1004.31 1004.51 1004.73 1004.94 1005.14 1005.32 1005.48 1005.60 1005.69 1005.74 1005.76 1005.74 1005.68 1005.58 1005.43 1005.26 1005.05 1004.82 1004.57 1004.32 1004.08 1003.86 1003.68 1003.53
1007.60 1007.78 1007.98 1008.13 1008.22 1008.20 1008.06 1007.80 1007.43 1006.97 1006.45 1005.92 1005.41 1004.94 1004.56 1004.27 1004.09 1004.00 1004.01 1004.09 1004.22 1004.40 1004.59 1004.78 1004.96 1005.13 1005.26 1005.37 1005.45 1005.49 1005.50 1005.46 1005.37 1005.25 1005.07 1004.84 1004.58 1004.29 1003.97 1003.66 1003.35 1003.08 1002.84 1002.65
1007.98 1008.19 1008.40 1008.57 1008.67 1008.65 1008.52 1008.26 1007.89 1007.43 1006.91 1006.36 1005.83 1005.34 1004.92 1004.59 1004.36 1004.21 1004.16 1004.17 1004.25 1004.36 1004.49 1004.63 1004.77 1004.90 1005.02 1005.12 1005.19 1005.23 1005.24 1005.21 1005.12 1004.98 1004.79 1004.53 1004.23 1003.88 1003.51 1003.13 1002.76 1002.42 1002.13 1001.89
1008.45 1008.65 1008.85 1009.00 1009.08 1009.05 1008.91 1008.65 1008.29 1007.84 1007.33 1006.80 1006.27 1005.78 1005.34 1004.98 1004.70 1004.51 1004.38 1004.33 1004.32 1004.36 1004.42 1004.50 1004.59 1004.69 1004.78 1004.87 1004.94 1005.00 1005.02 1005.00 1004.92 1004.78 1004.58 1004.30 1003.97 1003.58 1003.15 1002.72 1002.29 1001.89 1001.53 1001.25
1008.93 1009.09 1009.23 1009.33 1009.35 1009.29 1009.12 1008.85 1008.48 1008.05 1007.56 1007.05 1006.54 1006.07 1005.64 1005.27 1004.97 1004.73 1004.55 1004.44 1004.37 1004.33 1004.33 1004.36 1004.41 1004.47 1004.55 1004.63 1004.71 1004.78 1004.82 1004.81 1004.75 1004.62 1004.41 1004.12 1003.76 1003.33 1002.87 1002.38 1001.90 1001.45 1001.05 1000.72
1009.33 1009.40 1009.45 1009.45 1009.39 1009.25 1009.03 1008.73 1008.35 1007.92 1007.45 1006.97 1006.50 1006.06 1005.65 1005.30 1005.00 1004.75 1004.55 1004.40 1004.29 1004.22 1004.18 1004.18 1004.20 1004.25 1004.32 1004.41 1004.50 1004.59 1004.64 1004.65 1004.60 1004.48 1004.26 1003.96 1003.58 1003.13 1002.63 1002.11 1001.59 1001.11 1000.68 1000.32
1009.53 1009.48 1009.41 1009.29 1009.11 1008.88 1008.58 1008.23 1007.83 1007.40 1006.95 1006.50 1006.08 1005.68 1005.32 1005.01 1004.74 1004.52 1004.33 1004.19 1004.08 1004.00 1003.96 1003.95 1003.98 1004.03 1004.12 1004.22 1004.33 1004.43 1004.50 1004.53 1004.48 1004.36 1004.15 1003.84 1003.45 1002.98 1002.47 1001.93 1001.40 1000.90 1000.47 1000.10
1009.45 1009.26 1009.05 1008.79 1008.49 1008.15 1007.77 1007.36 1006.94 1006.50 1006.08 1005.68 1005.31 1004.97 1004.69 1004.44 1004.23 1004.06 1003.93 1003.83 1003.76 1003.72 1003.71 1003.73 1003.78 1003.86 1003.97 1004.10 1004.23 1004.34 1004.43 1004.46 1004.43 1004.31 1004.10 1003.79 1003.41 1002.95 1002.44 1001.91 1001.39 1000.90 1000.47 1000.12
1009.05 1008.73 1008.38 1008.00 1007.59 1007.15 1006.70 1006.25 1005.80 1005.38 1004.99 1004.64 1004.34 1004.09 1003.88 1003.72 1003.60 1003.52 1003.46 1003.44 1003.43 1003.45 1003.50 1003.57 1003.67 1003.79 1003.94 1004.09 1004.25 1004.38 1004.48 1004.52 1004.49 1004.38 1004.18 1003.88 1003.51 1003.07 1002.59 1002.09 1001.61 1001.15 1000.75 1000.42
1008.36 1007.94 1007.48 1007.01 1006.51 1006.01 1005.52 1005.05 1004.62 1004.23 1003.89 1003.61 1003.39 1003.23 1003.13 1003.06 1003.04 1003.05 1003.09 1003.15 1003.23 1003.32 1003.44 1003.57 1003.72 1003.89 1004.07 1004.25 1004.43 1004.57 1004.68 1004.73 1004.71 1004.61 1004.43 1004.16 1003.82 1003.42 1002.98 1002.53 1002.09 1001.68 1001.32 1001.03
1007.49 1007.01 1006.50 1005.97 1005.45 1004.94 1004.45 1004.01 1003.61 1003.28 1003.02 1002.82 1002.69 1002.63 1002.62 1002.66 1002.73 1002.84 1002.96 1003.10 1003.25 1003.41 1003.59 1003.78 1003.97 1004.18 1004.39 1004.59 1004.77 1004.93 1005.04 1005.10 1005.09 1005.01 1004.85 1004.61 1004.32 1003.97 1003.59 1003.20 1002.81 1002.45 1002.14 1001.88
Thickness
5812 5820 5822 5819 5820 5823 5817 5814 5805 5805 5809 5816 5820 5818 5819 5820 5817 5815 5812 5811 5809 5806 5804 5802 5800 5798 5796 5793 5791 5787 5782 5777 5772 5769 5766 5762 5758 5754 5750 5745 5742 5738 5735 5732
5800 5814 5819 5815 5819 5821 5819 5820 5816 5810 5803 5819 5821 5818 5813 5812 5807 5803 5802 5802 5802 5799 5797 5795 5792 5790 5789 5786 5783 5781 5776 5771 5768 5763 5759 5755 5751 5747 5743 5739 5736 5732 5729 5726
5780 5801 5804 5794 5811 5816 5816 5819 5815 5800 5801 5812 5805 5804 5803 5804 5801 5798 5795 5795 5794 5793 5791 5789 5787 5785 5781 5779 5777 5773 5768 5765 5761 5757 5752 5748 5745 5741 5736 5733 5729 5726 5723 5721
5777 5779 5763 5797 5826 5822 5812 5807 5813 5807 5805 5805 5800 5800 5801 5801 5796 5792 5789 5788 5787 5788 5785 5784 5783 5780 5777 5774 5770 5765 5761 5757 5754 5750 5746 5742 5738 5734 5731 5728 5725 5721 5718 5715
5766 5760 5770 5792 5807 5807 5796 5790 5802 5798 5797 5799 5799 5792 5788 5793 5792 5788 5785 5784 5783 5783 5781 5779 5776 5774 5770 5765 5762 5758 5754 5751 5748 5744 5740 5736 5731 5728 5726 5722 5719 5716 5714 5711
5760 5751 5750 5766 5793 5803 5792 5771 5790 5790 5784 5786 5784 5766 5766 5781 5782 5781 5779 5777 5776 5775 5774 5770 5769 5768 5762 5758 5754 5749 5747 5744 5742 5738 5733 5729 5726 5723 5720 5717 5714 5711 5708 5706
5752 5749 5752 5771 5787 5789 5756 5750 5776 5780 5778 5775 5768 5765 5767 5772 5771 5769 5768 5768 5767 5765 5762 5760 5760 5758 5752 5748 5745 5744 5741 5738 5734 5731 5727 5724 5720 5717 5714 5711 5708 5705 5702 5700
5746 5738 5732 5763 5768 5755 5750 5765 5768 5769 5768 5765 5762 5762 5761 5759 5758 5756 5756 5757 5757 5753 5750 5750 5749 5746 5740 5737 5738 5737 5733 5729 5726 5723 5721 5719 5714 5710 5707 5704 5700 5698 5695 5693
5740 5732 5743 5755 5754 5755 5759 5755 5756 5757 5757 5755 5751 5748 5747 5746 5745 5746 5745 5745 5744 5742 5738 5737 5737 5735 5729 5729 5729 5727 5723 5719 5717 5715 5712 5710 5706 5702 5699 5696 5693 5691 5689 5687
5732 5734 5740 5745 5747 5748 5748 5746 5746 5747 5747 5745 5740 5739 5737 5736 5734 5733 5733 5732 5730 5729 5725 5724 5724 5724 5721 5720 5719 5716 5711 5708 5707 5705 5702 5700 5698 5696 5692 5689 5686 5684 5682 5680
5721 5726 5730 5732 5734 5736 5737 5738 5736 5736 5737 5735 5732 5729 5727 5724 5723 5722 5721 5720 5719 5716 5714 5713 5713 5712 5712 5710 5707 5704 5700 5698 5697 5696 5694 5691 5689 5687 5685 5682 5679 5675 5674 5672
5709 5718 5717 5717 5725 5727 5725 5723 5723 5723 5722 5723 5722 5719 5717 5715 5714 5711 5709 5709 5707 5706 5704 5703 5703 5701 5700 5700 5697 5693 5691 5689 5688 5687 5685 5683 5681 5678 5676 5673 5670 5667 5665 5662
5713 5716 5715 5715 5716 5717 5715 5714 5714 5712 5711 5710 5710 5709 5706 5704 5703 5701 5699 5697 5696 5695 5694 5693 5692 5691 5690 5689 5687 5684 5682 5680 5679 5678 5677 5674 5672 5669 5665 5662 5661 5659 5657 5654
5706 5705 5701 5703 5704 5706 5705 5704 5704 5702 5701 5701 5699 5698 5696 5694 5692 5689 5687 5687 5686 5685 5684 5683 5682 5681 5680 5679 5677 5674 5672 5671 5669 5668 5668 5666 5664 5663 5660 5657 5655 5653 5650 5646
5696 5697 5695 5695 5695 5695 5695 5694 5691 5689 5688 5688 5688 5686 5684 5681 5679 5678 5678 5678 5677 5675 5673 5672 5671 5670 5671 5670 5668 5665 5663 5663 5661 5660 5659 5657 5656 5655 5654 5653 5650 5647 5644 5641
5685 5687 5687 5684 5682 5683 5682 5681 5678 5677 5677 5675 5675 5674 5673 5672 5670 5670 5669 5668 5666 5664 5663 5662 5661 5662 5662 5661 5658 5657 5655 5653 5651 5650 5650 5649 5648 5646 5645 5644 5642 5639 5637 5636
5673 5672 5673 5672 5672 5672 5672 5671 5669 5668 5667 5666 5664 5664 5663 5661 5660 5659 5659 5659 5658 5656 5655 5654 5653 5653 5653 5651 5649 5649 5648 5646 5642 5642 5641 5640 5639 5638 5637 5635 5634 5632 5632 5631
5671 5670 5669 5666 5664 5662 5661 5661 5660 5659 5658 5658 5656 5654 5652 5650 5648 5648 5648 5649 5649 5648 5647 5646 5645 5644 5644 5642 5640 5640 5639 5637 5636 5634 5633 5631 5631 5630 5629 5627 5626 5625 5625 5623
5663 5662 5660 5659 5657 5655 5653 5652 5651 5651 5649 5648 5646 5643 5642 5640 5640 5639 5640 5639 5638 5637 5637 5638 5635 5635 5635 5634 5631 5631 5630 5629 5628 5627 5625 5623 5622 5622 5621 5620 5619 5618 5617 5615
5654 5653 5651 5650 5649 5647 5645 5644 5642 5641 5640 5639 5636 5634 5632 5631 5631 5630 5630 5630 5630 5630 5631 5629 5628 5627 5626 5625 5622 5623 5622 5621 5619 5617 5615 5615 5613 5612 5612 5611 5611 5610 5609 5608
5643 5642 5641 5640 5638 5637 5636 5635 5633 5631 5630 5629 5626 5624 5622 5622 5622 5622 5621 5620 5621 5621 5621 5620 5619 5618 5617 5615 5614 5614 5613 5611 5610 5608 5606 5604 5603 5603 5602 5601 5601 5600 5600 5600
5633 5632 5631 5630 5629 5628 5627 5626 5624 5622 5620 5619 5617 5616 5614 5613 5614 5614 5613 5612 5613 5611 5611 5612 5611 5608 5607 5605 5606 5605 5603 5602 5601 5599 5597 5595 5594 5593 5593 5592 5592 5592 5592 5592
5624 5623 5622 5621 5620 5619 5618 5617 5616 5614 5612 5610 5609 5607 5607 5606 5606 5605 5604 5605 5605 5602 5602 5602 5600 5598 5596 5597 5597 5596 5595 5594 5592 5590 5589 5587 5586 5585 5584 5584 5583 5583 5583 5583
5615 5615 5614 5614 5612 5610 5609 5609 5608 5607 5606 5604 5603 5602 5601 5600 5600 5600 5598 5596 5594 5593 5594 5592 5590 5589 5587 5589 5588 5588 5587 5586 5584 5582 5581 5580 5578 5577 5576 5576 5575 5575 5575 5575
5609 5608 5608 5606 5604 5604 5603 5602 5601 5600 5599 5598 5597 5597 5596 5595 5593 5593 5591 5590 5588 5586 5588 5586 5584 5582 5582 5582 5581 5580 5579 5577 5576 5575 5573 5572 5570 5569 5567 5567 5566 5566 5566 5566
5603 5603 5602 5600 5599 5598 5598 5596 5594 5593 5592 5591 5590 5590 5590 5589 5588 5586 5584 5583 5582 5580 5581 5580 5579 5576 5576 5575 5574 5573 5571 5570 5568 5567 5565 5564 5562 5560 5559 5558 5558 5557 5557 5557
5598 5597 5596 5595 5594 5593 5591 5589 5587 5585 5585 5583 5582 5582 5582 5582 5581 5579 5578 5577 5576 5575 5574 5573 5572 5571 5570 5568 5566 5565 5564 5562 5561 5559 5557 5555 5553 5552 5551 5550 5549 5549 5549 5549